• Processing (Info)

  • MPEC 2001-E20 : 2000 UV16

    The following Minor Planet Electronic Circular may be linked-to from your own Web pages, but must not otherwise be redistributed electronically.

    A form allowing access to any MPEC is at the bottom of this page.


    Read MPEC 2001-E19 Read MPEC 2001-E21


    M.P.E.C. 2001-E20                                Issued 2001 Mar. 7, 20:41 UT
    
         The Minor Planet Electronic Circulars contain information on unusual
             minor planets and routine data on comets.  They are published
       on behalf of Commission 20 of the International Astronomical Union by the
              Minor Planet Center, Smithsonian Astrophysical Observatory,
                              Cambridge, MA 02138, U.S.A.
    
                 Prepared using the Tamkin Foundation Computer Network
    
                                  MPC@CFA.HARVARD.EDU
              URL http://cfa-www.harvard.edu/iau/mpc.html  ISSN 1523-6714
    
                                       2000 UV16
    
                               Revision to MPEC 2000-U43
    
    Observations:
         K00U16V 2 1989 06 28.44979 15 46 06.72 -30 10 41.7                      260
         K00U16V 2 1989 06 28.48798 15 46 04.48 -30 10 30.6                      260
    
    Observer details:
    260 Siding Spring-DSS.  Observer P. McKenzie.  Trail located and measured by
        ANEOPP (M. Read, A. Boattini, G. Forti, G. D'Abramo).  1.2-m Schmidt.
    
    Orbital elements:
    2000 UV16
    Epoch 2001 Apr. 1.0 TT = JDT 2452000.5                  Williams
    M  68.89515              (2000.0)            P               Q
    n   0.27377397     Peri.  352.61407     +0.90277538     +0.42954469
    a   2.3489546      Node   341.89778     -0.39089579     +0.79795368
    e   0.4837727      Incl.    4.07689     -0.17943549     +0.42280170
    P   3.60           H   17.3           G   0.15           U   3
    Residuals in seconds of arc
    890628 260  0.2-  0.1+    001101 704  0.4+  0.5+    001120 704  0.1+  0.7+
    890628 260  0.2+  0.1-    001101 704  0.2-  0.9+    001120 704  0.7-  0.4+
    000927 704  0.0   0.1-    001101 704  0.2+  1.1+    001120 704  1.0+  1.3+
    000927 704  0.4-  0.4-    001101 704  0.2+  0.0     001120 704  0.3-  0.3+
    000927 704  0.2-  0.8+    001101 704  0.2+  0.2-    001120 704  1.1-  0.7+
    000927 704  0.3-  0.2+    001101 704  0.3+  0.1+    001123 360  0.3+  0.0
    001003 704  0.3-  0.5-    001101 704  0.1+  0.5+    001123 360  0.0   0.2-
    001003 704  0.2-  0.1+    001101 704  0.0   0.4-    001123 360  0.1-  0.2-
    001003 704  0.2+  0.2+    001101 704  0.1+  0.8-    001124 699  0.1-  0.6+
    001025 704  0.1+  0.1+    001102 704  0.1+  0.1-    001124 699  0.0   0.7+
    001025 704  0.5+  0.2-    001102 704  0.5-  0.3-    001124 699  0.4-  0.4+
    001025 704  0.4+  0.3+    001102 704  0.2+  0.9-    001124 699  0.1-  0.6+
    001025 704  0.1-  0.3+    001102 704  0.2-  0.5-    001130 704  0.1-  0.0
    001025 704  0.2+  0.6+    001106 402  0.3+  0.4-    001130 704  0.3-  0.0
    001030 704  1.0+  0.4+    001106 402  0.1-  0.4-    001130 704  0.2+  0.1+
    001030 704  0.9+  0.0     001106 402  0.1-  0.4-    001130 704  0.1+  0.2-
    001030 704  0.7-  0.6-    001109 118  0.1-  0.2-    001130 704  0.8-  0.8+
    001030 704  0.4+  0.3-    001109 118  0.6-  0.2-    001202 711  0.0   0.1-
    001031 858  0.1+  0.0     001109 118  0.3-  0.2+    001202 711  0.5+  0.5-
    001031 858  0.2-  0.1+    001119 704  0.3-  0.1+    001204 704  0.1-  0.1-
    001031 858  0.1-  0.1-    001119 704  0.5+  0.0     001204 704  1.7-  1.9-
    001031 704  0.4+  0.4-    001119 704  0.3+  0.1-    001204 704  0.7-  0.5-
    001031 704  0.2-  0.6+    001119 704  0.0   0.5-    001204 704 (0.3-  2.5-)
    001031 704  0.2-  0.7-    001119 670  1.3+  0.4+    001223 696  0.4+  0.1+
    001031 704  0.5-  0.0     001119 670  0.5+  1.1-    001223 696  0.3+  0.3+
    001031 704  0.2-  0.2-    001119 704  0.2+  0.4-
    
    Gareth V. Williams           (C) Copyright 2001 MPC           M.P.E.C. 2001-E20
    

    Read MPEC 2001-E19 Read MPEC 2001-E21


    MPEC number:

    Enter an MPEC number in one of the following forms:

    • 1997-B01 (the full form)
    • J97B01 (the packed version of the full form)
    • B01 (the abbreviated form)